HARBINGER (44229 NORAD) Tracking and Keplerian Element Data

This shows tracking and keplerian element data for the satellite.

Feedback or suggestion? Click here.




ElementValue
Catalog44229
NameHARBINGER
Epoch Orbit451
Epoch Day154.95907079
Epoch Year2019
RAAN61.6336
Inclination40.0212
Eccentricity0.0006649
Argument of Perigee128.9739
Mean Anonmoly231.1654
Mean Motion15.20464311
Decay Rate7.47E-06
L11 44229U 19026E 19154.95907079 .00000747 00000-0 41606-4 0 9994
L22 44229 40.0212 61.6336 0006649 128.9739 231.1654 15.20464311 4510

Live tracking and technical data element details for HARBINGER (NORAD 44229). HARBINGER can be tracked NOW for your location showing map with azimuth and elevation plus other details from your city location.

Track the satellite on the map from your city or location and see movement details for azimuth, elevation, latitude, longitude, range, height, and movement on the map or in text.







IsCatalogInMostPopularTable: catalog: 44229, numindb: 16
Update: records affected: 1



GetName: 44229 HARBINGER

Hit Count: updated at: Sat, 20 Jul 2019 22:24:52 GMT